Back to catalog

COSMOS 2288

GLONASS

AliveNavigationMEO
NORAD 23205·PAYLOAD·🇷🇺 Russia

Launched Aug 11, 1994 from Baikonur Cosmodrome

Loading…

Next Passes (next 24 hours)

TLE

FreshSource: Space-Track

Epoch: Sep 11, 2026, 07:03 UTC

1 23205U 94050C   26254.29385287 -.00000005  00000-0  00000-0 0  9999
2 23205  65.4144 199.3653 0002218 296.1210 241.8860  2.13101583249668

Track COSMOS 2288 in real time with AllMySat

Download on the App Store